Aeroporto :
LOGIN :

Iscrizione | Disclaimer

   EN    FR    IT 

 










Sommario :    VFR   VFR Marginale   IFR   IFR Intensivo   IFR Molto Intensivo
Visibilità : 
Base nubi : 
>= 8 km
>= 3000ft
5 / 8 km
1000 / 3000 ft
1500m / 5 km
500 / 1000 ft
800 / 1500m
200 / 500 ft
< 800m
< 200 ft
Simboli :   Temporali  Nebbia  Neve Forte  Precipitazioni Forti  Vento > 20 kt
SIGMETs :   Varie  Temporali  Ghiacco  Turbolenza  Onda orograficha  Ceneri Vulcaniche







- Altitudine del aeroporto : 390 ft
- Codice IATA : NQY
- Carte del aeroporto


EGHQ - Newquay

ULTIMO METAR :
  • 241750Z 01005KT 9999 FEW032 11/06 Q1038

METARs OBSOLETI :
  • 241720Z 36006KT 9999 FEW032 12/05 Q1038
  • 241650Z 35008KT 9999 FEW032 13/05 Q1038
  • 241620Z 35007KT 320V020 9999 FEW032 13/06 Q1038
  • 241550Z 01009KT 9999 FEW032 13/06 Q1038
  • 241520Z 35009KT 320V030 9999 FEW032 13/06 Q1039

TAF TAF EGHQ
Valido dal 24 a 18 ore il 24 a 21 ore UTC


241653Z 2418/2421 04005KT 9999 FEW025
Nessun NOTAM noto per questo aeroporto.



MetMap, La meteo Aeronautica in un colpo d'occhio ! - Copyright ORBIFLY Dicembre 2007 - Disclaimer

ORBIFLY MET'MAP TEAM :

Programmazione e sviluppo : Alexandra Zaïnal
Concezione e sviluppo : Baudouin d'Aumeries
Co-Programmazione e sviluppo : Marc-Olivier Méhu
Supporto tecnico e logistico : Manuel Goepfert
Aiuto per la traduzione : Arnaldo La Scala

Contatto : metmap@orbifly.com




FONTI E CREDITI :

   NOAA